Location: Unspecified
(43.4680°N, 87.1740°E)
Time: 14:40:26
(UTC+00:00)

Cosmos 1356 Rocket - Pass Details

Date: 30 July 2021
Orbit: 543 x 597 km, 81.2° (Epoch: 19 September)

Event Time Altitude Azimuth Distance (km) Brightness Sun altitude
Exits shadow 20:09:01 79° 86° (E) 562 3.3 -23.2°
Drops below altitude 10° 20:12:57 10° 13° (NNE) 1,820 7.0 -22.8°
Sets 20:15:07 0° 12° (NNE) 2,716 8.1 -22.6°
